Home   Weather   Hollywood   Past weeks
Flag for USA

Past Weather in Hollywood, Florida, USA — Yesterday and Last 2 Weeks

Now
77 °F

Passing clouds.


Feels Like: 78 °F
Forecast: 88 / 76 °F
Wind: 3 mph from North

Location: Fort Lauderdale / Hollywood International Airport

Current Time: Jun 1, 2020 at 5:13:05 am

Latest Report: Jun 1, 2020 at 3:53 am


Visibility: 10 mi

Pressure: 29.99 "Hg

Humidity: 88%

Dew Point: 73 °F

Location of HollywoodLocation

Past Weather in Hollywood — Graph

°F

Hollywood Temperature Yesterday

Maximum temperature yesterday: 87 °F (at 11:53 am)
Minimum temperature yesterday: 77 °F (at 5:53 am)
Average temperature yesterday: 83 °F

High & Low Weather Summary for the Past Weeks

 TemperatureHumidityPressure
High89 °F (May 17, 2:53 pm)100% (May 17, 6:33 am)30.08 "Hg (May 17, 6:33 am)
Low70 °F (May 18, 8:53 pm)61% (May 17, 2:53 pm)29.82 "Hg (May 19, 4:53 pm)
Average80 °F82%29.96 "Hg
* Reported May 17 3:13 am — Jun 1 3:53 am, Hollywood. Weather by CustomWeather, © 2020

Note: Actual official high and low records may vary slightly from our data, if they occured in-between our weather recording intervals... More about our weather records

Hollywood Weather History for the Previous 24 Hours

Scroll right to see more
 ConditionsComfort  
Time TempWeatherWind HumidityBarometerVisibility
3:53 am
Mon, Jun 1
77 °FPassing clouds.3 mph88%29.99 "Hg10 mi
2:53 am78 °FPassing clouds.No wind84%29.99 "Hg10 mi
1:53 am80 °FPassing clouds.3 mph79%30.01 "Hg10 mi
12:53 am80 °FPassing clouds.5 mph76%30.02 "Hg10 mi
11:53 pm
Sun, May 31
80 °FPassing clouds.8 mph76%30.03 "Hg10 mi
10:53 pm82 °FPassing clouds.7 mph72%30.03 "Hg10 mi
9:53 pm82 °FPassing clouds.9 mph74%30.02 "Hg10 mi
8:53 pm83 °FPartly cloudy.9 mph72%30.00 "Hg10 mi
7:53 pm84 °FBroken clouds.13 mph67%30.00 "Hg10 mi
6:53 pm84 °FBroken clouds.13 mph70%29.98 "Hg10 mi
5:53 pm85 °FPartly sunny.13 mph65%29.96 "Hg10 mi
4:53 pm87 °FBroken clouds.13 mph63%29.97 "Hg10 mi
3:53 pm87 °FBroken clouds.12 mph63%29.98 "Hg10 mi
2:53 pm87 °FScattered clouds.10 mph63%30.00 "Hg10 mi
1:53 pm87 °FScattered clouds.10 mph63%30.01 "Hg10 mi
12:53 pm87 °FScattered clouds.12 mph65%30.02 "Hg10 mi
11:53 am87 °FScattered clouds.8 mph67%30.03 "Hg10 mi
10:53 am86 °FScattered clouds.8 mph65%30.04 "Hg10 mi
9:53 am84 °FScattered clouds.No wind70%30.03 "Hg10 mi
8:53 am84 °FScattered clouds.7 mph74%30.03 "Hg10 mi
7:53 am81 °FBroken clouds.No wind82%30.00 "Hg10 mi
6:53 am78 °FPartly sunny.No wind87%29.99 "Hg10 mi
5:53 am77 °FPartly cloudy.No wind88%29.97 "Hg10 mi
Weather by CustomWeather, © 2020

See weather overview

Advertising